Location: Newark
(6.1731°S, 35.7419°E)
Time: 16:53:48
(UTC+00:00)

Tiros 1 despin weight - All Passes

Search period start: 26 February 2020 00:00
Search period end: 07 March 2020 00:00
Orbit: 594 x 642 km, 48.2° (Epoch: 25 February)

Date Brightness Start Highest point End Pass type
(mag) Time Alt. Az. Time Alt. Az. Time Alt. Az.
26 Feb - 05:12:41 10° NNW 05:16:45 35° NE 05:20:53 10° ESE daylight
26 Feb - 06:55:12 10° W 06:58:13 17° SW 07:01:16 10° S daylight
26 Feb - 15:38:25 10° SSE 15:40:59 14° SE 15:43:30 10° E daylight
26 Feb - 17:18:03 10° SW 17:22:31 46° NW 17:26:54 10° NNE visible
27 Feb - 05:28:45 10° NW 05:33:12 81° SW 05:37:45 10° SE daylight
27 Feb - 15:53:18 10° SSW 15:57:36 35° SE 16:01:49 10° ENE daylight
27 Feb - 17:35:51 10° W 17:38:56 18° NW 17:42:01 10° N visible
28 Feb - 04:05:08 10° N 04:08:22 20° NE 04:11:38 10° E daylight
28 Feb - 05:45:49 10° WNW 05:49:43 29° SW 05:53:41 10° SSE daylight
28 Feb - 16:09:25 10° SW 16:14:05 85° NW 16:18:42 10° NE visible
29 Feb - 04:20:29 10° NNW 04:24:48 54° NE 04:29:13 10° SE daylight
29 Feb - 06:04:46 10° WSW 06:06:22 12° SW 06:07:58 10° SSW daylight
29 Feb - 14:45:33 10° S 14:49:05 21° SE 14:52:37 10° E daylight
29 Feb - 16:26:26 10° WSW 16:30:32 30° NW 16:34:35 10° N visible
01 Mar - 02:58:48 10° NE 02:59:58 11° NE 03:01:09 10° ENE visible
01 Mar - 04:36:57 10° NW 04:41:16 52° SW 04:45:41 10° SSE daylight
01 Mar - 15:01:04 10° SSW 15:05:39 54° SE 15:10:11 10° NE daylight
01 Mar - 16:45:21 10° WNW 16:46:59 12° NW 16:48:38 10° NNW visible
02 Mar - 03:12:34 10° N 03:16:25 29° NE 03:20:19 10° ESE visible
02 Mar - 04:54:34 10° W 04:57:50 20° SW 05:01:09 10° S daylight
02 Mar - 13:38:32 10° SSE 13:40:33 13° SE 13:42:33 10° ESE daylight
02 Mar - 15:17:32 10° SW 15:22:07 55° NW 15:26:39 10° NNE daylight
03 Mar - 03:28:26 10° NW 03:32:51 85° NE 03:37:21 10° SE daylight
03 Mar - 13:53:02 10° SSW 13:57:11 31° SE 14:01:17 10° ENE daylight
03 Mar - 15:35:04 10° W 15:38:34 21° NW 15:42:01 10° N daylight
04 Mar - 02:05:11 10° NNE 02:08:02 17° NE 02:10:53 10° E visible
04 Mar - 03:45:21 10° WNW 03:49:21 34° SW 03:53:26 10° SSE daylight
04 Mar - 14:08:59 10° SW 14:13:41 82° SE 14:18:20 10° NE daylight
05 Mar - 02:20:16 10° NNW 02:24:28 45° NE 02:28:44 10° SE visible
05 Mar - 04:03:48 10° WSW 04:05:59 13° SW 04:08:10 10° SSW daylight
05 Mar - 12:45:25 10° S 12:48:40 18° SE 12:51:54 10° E daylight
05 Mar - 14:25:51 10° WSW 14:30:09 36° NW 14:34:24 10° NNE daylight
06 Mar - 02:36:34 10° NW 02:40:55 61° SW 02:45:20 10° SSE visible
06 Mar - 13:00:44 10° SSW 13:05:15 46° SE 13:09:43 10° ENE daylight
06 Mar - 14:44:11 10° W 14:46:36 14° NW 14:49:00 10° NNW daylight
